This is the latest recevied weather packets stored in our database for station/object VE6HFD-WX. If no packets are shown the sender has not sent any weather packets the latest 10 day(s).
| Time | Temp. | Humidity | Pressure | Rain* | Wind** | Luminosity | Snow |
|---|---|---|---|---|---|---|---|
| 1777888378 | 2.22° C | 71% | 1013.4 hPa | 0 mm | - | - | - |
| 1777888078 | 2.78° C | 69% | 1013.3 hPa | 0 mm | - | - | - |
| 1777887748 | 3.33° C | 69% | 1013.3 hPa | 0 mm | - | - | - |
| 1777887448 | 3.33° C | 69% | 1013.2 hPa | 0 mm | - | - | - |
| 1777887148 | 3.33° C | 69% | 1013.2 hPa | 0 mm | - | - | - |
| 1777886848 | 3.33° C | 69% | 1013.1 hPa | 0 mm | - | - | - |
| 1777886518 | 3.33° C | 70% | 1013.2 hPa | 0 mm | - | - | - |
| 1777886218 | 2.78° C | 70% | 1013.2 hPa | 0 mm | - | - | - |
| 1777885888 | 3.33° C | 69% | 1013.1 hPa | 0 mm | - | - | - |
| 1777885588 | 3.33° C | 70% | 1013.1 hPa | 0 mm | - | - | - |
| 1777885258 | 2.78° C | 71% | 1012.9 hPa | 0 mm | - | - | - |
| 1777884928 | 2.78° C | 71% | 1012.7 hPa | 0 mm | - | - | - |
| 1777884598 | 2.78° C | 70% | 1012.8 hPa | 0 mm | - | - | - |
| 1777884298 | 3.33° C | 68% | 1012.8 hPa | 0 mm | - | - | - |
| 1777883968 | 3.33° C | 67% | 1012.8 hPa | 0 mm | - | - | - |
| 1777883668 | 3.89° C | 65% | 1012.8 hPa | 0 mm | - | - | - |
| 1777883368 | 3.89° C | 64% | 1012.7 hPa | 0 mm | - | - | - |
| 1777883068 | 4.44° C | 64% | 1012.7 hPa | 0 mm | - | - | - |
| 1777882768 | 4.44° C | 63% | 1012.5 hPa | 0 mm | - | - | - |
| 1777882468 | 5° C | 61% | 1012.6 hPa | 0 mm | - | - | - |
| 1777882138 | 5° C | 61% | 1012.6 hPa | 0 mm | - | - | - |
| 1777881838 | 5.56° C | 60% | 1012.4 hPa | 0 mm | - | - | - |
| 1777881508 | 5.56° C | 59% | 1012.3 hPa | 0 mm | - | - | - |
| 1777881178 | 6.11° C | 58% | 1012.4 hPa | 0 mm | - | - | - |
| 1777880878 | 6.11° C | 57% | 1012.4 hPa | 0 mm | - | - | - |
* Rain latest hour (hover to see other rain measurements)
** Current wind speed in m/s (hover to see current wind gust speed)